Year,Month,Day,Hour,Minute,Value (Times are PST for windgust in km/hr)
2011,01,13,00,00,1.60
2011,01,13,00,03,1.60
2011,01,13,00,04,1.60
2011,01,13,00,05,1.60
2011,01,13,00,10,1.60
2011,01,13,00,18,1.60
2011,01,13,00,19,1.60
2011,01,13,00,22,1.60
2011,01,13,00,23,1.60
2011,01,13,00,35,1.60
2011,01,13,00,40,1.60
2011,01,13,00,43,1.60
2011,01,13,00,49,1.60
2011,01,13,00,52,1.60
2011,01,13,00,56,1.60
2011,01,13,00,58,1.60
2011,01,13,01,00,1.60
2011,01,13,01,01,3.20
2011,01,13,01,02,6.40
2011,01,13,01,03,3.20
2011,01,13,01,04,3.20
2011,01,13,01,05,1.60
2011,01,13,01,07,1.60
2011,01,13,01,08,1.60
2011,01,13,01,09,3.20
2011,01,13,01,10,4.80
2011,01,13,01,11,4.80
2011,01,13,01,12,3.20
2011,01,13,01,17,1.60
2011,01,13,01,18,1.60
2011,01,13,01,19,3.20
2011,01,13,01,20,3.20
2011,01,13,01,21,3.20
2011,01,13,01,22,4.80
2011,01,13,01,23,4.80
2011,01,13,01,24,6.40
2011,01,13,01,25,3.20
2011,01,13,01,27,1.60
2011,01,13,01,28,4.80
2011,01,13,01,29,4.80
2011,01,13,01,30,4.80
2011,01,13,01,31,3.20
2011,01,13,01,32,3.20
2011,01,13,01,33,3.20
2011,01,13,01,36,1.60
2011,01,13,01,37,4.80
2011,01,13,01,38,3.20
2011,01,13,01,39,1.60
2011,01,13,01,40,3.20
2011,01,13,01,41,3.20
2011,01,13,01,42,3.20
2011,01,13,01,46,3.20
2011,01,13,01,47,4.80
2011,01,13,01,48,4.80
2011,01,13,01,49,1.60
2011,01,13,01,50,11.30
2011,01,13,01,51,4.80
2011,01,13,01,52,3.20
2011,01,13,01,53,3.20
2011,01,13,01,54,4.80
2011,01,13,01,55,3.20
2011,01,13,01,56,3.20
2011,01,13,01,57,1.60
2011,01,13,01,58,1.60
2011,01,13,01,59,3.20
2011,01,13,02,00,6.40
2011,01,13,02,01,6.40
2011,01,13,02,02,9.60
2011,01,13,02,03,4.80
2011,01,13,02,04,4.80
2011,01,13,02,05,3.20
2011,01,13,02,07,3.20
2011,01,13,02,08,4.80
2011,01,13,02,09,6.40
2011,01,13,02,10,6.40
2011,01,13,02,11,4.80
2011,01,13,02,12,3.20
2011,01,13,02,13,9.60
2011,01,13,02,14,4.80
2011,01,13,02,15,4.80
2011,01,13,02,16,6.40
2011,01,13,02,17,3.20
2011,01,13,02,18,3.20
2011,01,13,02,20,3.20
2011,01,13,02,21,3.20
2011,01,13,02,22,3.20
2011,01,13,02,23,4.80
2011,01,13,02,24,3.20
2011,01,13,02,25,1.60
2011,01,13,02,27,3.20
2011,01,13,02,28,4.80
2011,01,13,02,29,4.80
2011,01,13,02,30,3.20
2011,01,13,02,31,1.60
2011,01,13,02,32,1.60
2011,01,13,02,33,3.20
2011,01,13,02,34,3.20
2011,01,13,02,35,1.60
2011,01,13,02,36,1.60
2011,01,13,02,37,1.60
2011,01,13,02,42,1.60
2011,01,13,02,52,1.60
2011,01,13,02,53,3.20
2011,01,13,02,57,3.20
2011,01,13,03,14,1.60
2011,01,13,03,19,1.60
2011,01,13,03,28,1.60
2011,01,13,03,29,1.60
2011,01,13,03,30,3.20
2011,01,13,03,33,1.60
2011,01,13,03,34,1.60
2011,01,13,03,35,1.60
2011,01,13,03,36,1.60
2011,01,13,03,37,4.80
2011,01,13,03,38,4.80
2011,01,13,03,39,4.80
2011,01,13,03,40,4.80
2011,01,13,03,41,3.20
2011,01,13,03,42,8.10
2011,01,13,03,43,8.10
2011,01,13,03,44,11.30
2011,01,13,03,45,9.60
2011,01,13,03,46,4.80
2011,01,13,03,47,3.20
2011,01,13,03,48,8.10
2011,01,13,03,49,1.60
2011,01,13,03,52,4.80
2011,01,13,03,53,3.20
2011,01,13,03,54,1.60
2011,01,13,03,55,3.20
2011,01,13,03,56,1.60
2011,01,13,03,58,1.60
2011,01,13,03,59,1.60
2011,01,13,04,01,1.60
2011,01,13,04,04,1.60
2011,01,13,04,05,3.20
2011,01,13,04,06,1.60
2011,01,13,04,08,1.60
2011,01,13,04,15,1.60
2011,01,13,04,16,3.20
2011,01,13,04,17,3.20
2011,01,13,04,18,1.60
2011,01,13,04,19,3.20
2011,01,13,04,20,1.60
2011,01,13,04,22,6.40
2011,01,13,04,23,4.80
2011,01,13,04,24,6.40
2011,01,13,04,25,4.80
2011,01,13,04,26,3.20
2011,01,13,04,27,4.80
2011,01,13,04,28,6.40
2011,01,13,04,29,6.40
2011,01,13,04,30,4.80
2011,01,13,04,31,1.60
2011,01,13,04,34,3.20
2011,01,13,04,35,4.80
2011,01,13,04,36,1.60
2011,01,13,04,37,3.20
2011,01,13,04,38,1.60
2011,01,13,04,39,3.20
2011,01,13,04,40,4.80
2011,01,13,04,41,4.80
2011,01,13,04,42,3.20
2011,01,13,04,43,3.20
2011,01,13,04,44,3.20
2011,01,13,04,45,3.20
2011,01,13,04,46,3.20
2011,01,13,04,47,1.60
2011,01,13,04,48,3.20
2011,01,13,04,49,6.40
2011,01,13,04,50,3.20
2011,01,13,04,51,1.60
2011,01,13,04,52,3.20
2011,01,13,04,53,3.20
2011,01,13,04,54,3.20
2011,01,13,04,55,6.40
2011,01,13,04,56,4.80
2011,01,13,04,57,3.20
2011,01,13,04,58,3.20
2011,01,13,04,59,1.60
2011,01,13,05,00,3.20
2011,01,13,05,01,1.60
2011,01,13,05,04,3.20
2011,01,13,05,05,1.60
2011,01,13,05,11,3.20
2011,01,13,05,12,4.80
2011,01,13,05,13,3.20
2011,01,13,05,14,4.80
2011,01,13,05,15,6.40
2011,01,13,05,16,4.80
2011,01,13,05,17,3.20
2011,01,13,05,18,4.80
2011,01,13,05,19,4.80
2011,01,13,05,20,3.20
2011,01,13,05,21,3.20
2011,01,13,05,22,9.60
2011,01,13,05,23,9.60
2011,01,13,05,24,8.10
2011,01,13,05,25,8.10
2011,01,13,05,26,9.60
2011,01,13,05,27,9.60
2011,01,13,05,28,8.10
2011,01,13,05,29,8.10
2011,01,13,05,30,8.10
2011,01,13,05,31,6.40
2011,01,13,05,32,3.20
2011,01,13,05,33,4.80
2011,01,13,05,34,6.40
2011,01,13,05,35,4.80
2011,01,13,05,36,9.60
2011,01,13,05,37,4.80
2011,01,13,05,38,6.40
2011,01,13,05,39,6.40
2011,01,13,05,40,6.40
2011,01,13,05,41,4.80
2011,01,13,05,42,4.80
2011,01,13,05,43,6.40
2011,01,13,05,44,8.10
2011,01,13,05,45,3.20
2011,01,13,05,46,4.80
2011,01,13,05,47,1.60
2011,01,13,05,48,1.60
2011,01,13,05,49,3.20
2011,01,13,05,50,4.80
2011,01,13,05,51,4.80
2011,01,13,05,52,4.80
2011,01,13,05,53,4.80
2011,01,13,05,55,3.20
2011,01,13,05,56,6.40
2011,01,13,05,57,3.20
2011,01,13,05,59,3.20
2011,01,13,06,00,1.60
2011,01,13,06,01,3.20
2011,01,13,06,02,4.80
2011,01,13,06,03,3.20
2011,01,13,06,04,1.60
2011,01,13,06,05,4.80
2011,01,13,06,06,1.60
2011,01,13,06,07,3.20
2011,01,13,06,08,4.80
2011,01,13,06,09,4.80
2011,01,13,06,10,4.80
2011,01,13,06,11,4.80
2011,01,13,06,12,4.80
2011,01,13,06,13,4.80
2011,01,13,06,14,3.20
2011,01,13,06,15,6.40
2011,01,13,06,16,4.80
2011,01,13,06,17,3.20
2011,01,13,06,18,4.80
2011,01,13,06,19,4.80
2011,01,13,06,20,1.60
2011,01,13,06,22,3.20
2011,01,13,06,23,3.20
2011,01,13,06,24,1.60
2011,01,13,06,26,3.20
2011,01,13,06,27,1.60
2011,01,13,06,30,3.20
2011,01,13,06,31,4.80
2011,01,13,06,32,4.80
2011,01,13,06,33,3.20
2011,01,13,06,34,6.40
2011,01,13,06,35,4.80
2011,01,13,06,36,4.80
2011,01,13,06,37,1.60
2011,01,13,06,38,6.40
2011,01,13,06,39,3.20
2011,01,13,06,40,3.20
2011,01,13,06,41,3.20
2011,01,13,06,42,4.80
2011,01,13,06,43,3.20
2011,01,13,06,44,3.20
2011,01,13,06,45,3.20
2011,01,13,06,46,4.80
2011,01,13,06,47,3.20
2011,01,13,06,48,4.80
2011,01,13,06,49,4.80
2011,01,13,06,50,4.80
2011,01,13,06,51,1.60
2011,01,13,06,52,1.60
2011,01,13,07,05,3.20
2011,01,13,07,06,4.80
2011,01,13,07,07,4.80
2011,01,13,07,08,4.80
2011,01,13,07,09,1.60
2011,01,13,07,15,1.60
2011,01,13,07,20,3.20
2011,01,13,07,21,3.20
2011,01,13,07,22,3.20
2011,01,13,07,24,1.60
2011,01,13,07,25,3.20
2011,01,13,07,26,1.60
2011,01,13,07,33,1.60
2011,01,13,07,34,1.60
2011,01,13,07,38,1.60
2011,01,13,07,41,1.60
2011,01,13,07,42,3.20
2011,01,13,07,43,1.60
2011,01,13,07,51,1.60
2011,01,13,07,53,3.20
2011,01,13,07,54,3.20
2011,01,13,07,57,1.60
2011,01,13,07,58,1.60
2011,01,13,08,06,1.60
2011,01,13,08,07,1.60
2011,01,13,08,19,1.60
2011,01,13,08,56,1.60
2011,01,13,09,20,3.20
2011,01,13,09,32,1.60
2011,01,13,09,33,3.20
2011,01,13,09,34,1.60
2011,01,13,09,36,1.60
2011,01,13,09,38,1.60
2011,01,13,09,53,1.60
2011,01,13,09,57,3.20
2011,01,13,09,58,3.20
2011,01,13,09,59,3.20
2011,01,13,10,00,3.20
2011,01,13,10,02,1.60
2011,01,13,10,03,3.20
2011,01,13,10,04,1.60
2011,01,13,10,07,1.60
2011,01,13,10,09,3.20
2011,01,13,10,10,3.20
2011,01,13,10,11,1.60
2011,01,13,10,21,3.20
2011,01,13,10,22,1.60
2011,01,13,10,23,3.20
2011,01,13,10,26,1.60
2011,01,13,10,27,1.60
2011,01,13,10,32,1.60
2011,01,13,10,33,3.20
2011,01,13,10,35,1.60
2011,01,13,10,36,1.60
2011,01,13,10,37,3.20
2011,01,13,10,40,1.60
2011,01,13,10,44,1.60
2011,01,13,10,48,1.60
2011,01,13,10,54,1.60
2011,01,13,10,59,1.60
2011,01,13,11,00,3.20
2011,01,13,11,01,3.20
2011,01,13,11,02,3.20
2011,01,13,11,06,1.60
2011,01,13,11,07,1.60
2011,01,13,11,20,1.60
2011,01,13,11,21,1.60
2011,01,13,11,22,3.20
2011,01,13,11,23,3.20
2011,01,13,11,26,1.60
2011,01,13,11,29,1.60
2011,01,13,11,30,3.20
2011,01,13,11,31,1.60
2011,01,13,11,41,1.60
2011,01,13,11,47,1.60
2011,01,13,11,55,1.60
2011,01,13,11,57,1.60
2011,01,13,11,59,1.60
2011,01,13,12,00,3.20
2011,01,13,12,01,3.20
2011,01,13,12,06,1.60
2011,01,13,12,07,1.60
2011,01,13,12,10,1.60
2011,01,13,12,11,3.20
2011,01,13,12,12,1.60
2011,01,13,12,25,1.60
2011,01,13,12,26,4.80
2011,01,13,12,27,4.80
2011,01,13,12,31,3.20
2011,01,13,12,32,3.20
2011,01,13,12,33,1.60
2011,01,13,12,36,1.60
2011,01,13,12,38,1.60
2011,01,13,12,40,1.60
2011,01,13,12,41,1.60
2011,01,13,12,42,1.60
2011,01,13,12,44,1.60
2011,01,13,12,45,3.20
2011,01,13,12,46,1.60
2011,01,13,12,48,1.60
2011,01,13,12,54,1.60
2011,01,13,12,56,1.60
2011,01,13,12,57,1.60
2011,01,13,12,58,1.60
2011,01,13,12,59,3.20
2011,01,13,13,00,4.80
2011,01,13,13,01,1.60
2011,01,13,13,02,1.60
2011,01,13,13,03,1.60
2011,01,13,13,04,4.80
2011,01,13,13,05,3.20
2011,01,13,13,06,6.40
2011,01,13,13,07,6.40
2011,01,13,13,08,4.80
2011,01,13,13,09,4.80
2011,01,13,13,10,3.20
2011,01,13,13,11,3.20
2011,01,13,13,12,3.20
2011,01,13,13,13,1.60
2011,01,13,13,15,3.20
2011,01,13,13,16,1.60
2011,01,13,13,18,1.60
2011,01,13,13,22,3.20
2011,01,13,13,23,3.20
2011,01,13,13,24,6.40
2011,01,13,13,25,8.10
2011,01,13,13,26,6.40
2011,01,13,13,27,6.40
2011,01,13,13,28,3.20
2011,01,13,13,30,3.20
2011,01,13,13,31,4.80
2011,01,13,13,32,4.80
2011,01,13,13,33,4.80
2011,01,13,13,34,3.20
2011,01,13,13,35,3.20
2011,01,13,13,36,1.60
2011,01,13,13,38,3.20
2011,01,13,13,39,3.20
2011,01,13,13,40,3.20
2011,01,13,13,44,1.60
2011,01,13,13,45,1.60
2011,01,13,13,46,1.60
2011,01,13,13,47,1.60
2011,01,13,13,53,1.60
2011,01,13,13,54,3.20
2011,01,13,13,58,1.60
2011,01,13,13,59,1.60
2011,01,13,14,00,6.40
2011,01,13,14,01,6.40
2011,01,13,14,02,4.80
2011,01,13,14,03,3.20
2011,01,13,14,04,4.80
2011,01,13,14,05,6.40
2011,01,13,14,06,3.20
2011,01,13,14,07,4.80
2011,01,13,14,08,6.40
2011,01,13,14,09,3.20
2011,01,13,14,10,4.80
2011,01,13,14,11,6.40
2011,01,13,14,12,6.40
2011,01,13,14,13,6.40
2011,01,13,14,14,1.60
2011,01,13,14,17,3.20
2011,01,13,14,18,4.80
2011,01,13,14,19,8.10
2011,01,13,14,20,6.40
2011,01,13,14,21,4.80
2011,01,13,14,22,4.80
2011,01,13,14,28,1.60
2011,01,13,14,29,4.80
2011,01,13,14,30,3.20
2011,01,13,14,31,3.20
2011,01,13,14,32,3.20
2011,01,13,14,33,3.20
2011,01,13,14,34,1.60
2011,01,13,14,36,1.60
2011,01,13,14,39,1.60
2011,01,13,14,47,1.60
2011,01,13,14,48,1.60
2011,01,13,14,58,1.60
2011,01,13,15,03,3.20
2011,01,13,15,04,4.80
2011,01,13,15,05,6.40
2011,01,13,15,06,8.10
2011,01,13,15,07,8.10
2011,01,13,15,08,8.10
2011,01,13,15,09,9.60
2011,01,13,15,10,8.10
2011,01,13,15,11,6.40
2011,01,13,15,12,11.30
2011,01,13,15,13,14.50
2011,01,13,15,14,6.40
2011,01,13,15,15,4.80
2011,01,13,15,16,6.40
2011,01,13,15,17,9.60
2011,01,13,15,18,4.80
2011,01,13,15,19,8.10
2011,01,13,15,20,6.40
2011,01,13,15,21,1.60
2011,01,13,15,23,1.60
2011,01,13,15,24,4.80
2011,01,13,15,25,9.60
2011,01,13,15,26,4.80
2011,01,13,15,27,4.80
2011,01,13,15,28,3.20
2011,01,13,15,29,3.20
2011,01,13,15,30,6.40
2011,01,13,15,31,4.80
2011,01,13,15,32,3.20
2011,01,13,15,33,6.40
2011,01,13,15,34,3.20
2011,01,13,15,35,3.20
2011,01,13,15,36,3.20
2011,01,13,15,37,8.10
2011,01,13,15,38,4.80
2011,01,13,15,42,3.20
2011,01,13,15,43,4.80
2011,01,13,15,44,8.10
2011,01,13,15,45,3.20
2011,01,13,15,46,4.80
2011,01,13,15,47,6.40
2011,01,13,15,48,6.40
2011,01,13,15,49,8.10
2011,01,13,15,50,8.10
2011,01,13,15,51,11.30
2011,01,13,15,52,8.10
2011,01,13,15,53,11.30
2011,01,13,15,54,8.10
2011,01,13,15,55,8.10
2011,01,13,15,56,6.40
2011,01,13,15,57,9.60
2011,01,13,15,58,8.10
2011,01,13,15,59,9.60
2011,01,13,16,00,6.40
2011,01,13,16,01,4.80
2011,01,13,16,02,6.40
2011,01,13,16,03,8.10
2011,01,13,16,04,11.30
2011,01,13,16,05,6.40
2011,01,13,16,06,6.40
2011,01,13,16,07,4.80
2011,01,13,16,08,6.40
2011,01,13,16,09,4.80
2011,01,13,16,10,4.80
2011,01,13,16,11,8.10
2011,01,13,16,12,4.80
2011,01,13,16,13,6.40
2011,01,13,16,14,8.10
2011,01,13,16,15,8.10
2011,01,13,16,16,3.20
2011,01,13,16,17,11.30
2011,01,13,16,18,16.10
2011,01,13,16,19,14.50
2011,01,13,16,20,14.50
2011,01,13,16,21,9.60
2011,01,13,16,22,9.60
2011,01,13,16,23,16.10
2011,01,13,16,24,8.10
2011,01,13,16,25,17.70
2011,01,13,16,26,12.90
2011,01,13,16,27,11.30
2011,01,13,16,28,16.10
2011,01,13,16,29,17.70
2011,01,13,16,30,12.90
2011,01,13,16,31,9.60
2011,01,13,16,32,9.60
2011,01,13,16,33,9.60
2011,01,13,16,34,14.50
2011,01,13,16,35,11.30
2011,01,13,16,36,16.10
2011,01,13,16,37,11.30
2011,01,13,16,38,16.10
2011,01,13,16,39,16.10
2011,01,13,16,40,14.50
2011,01,13,16,41,19.30
2011,01,13,16,42,19.30
2011,01,13,16,43,16.10
2011,01,13,16,44,16.10
2011,01,13,16,45,19.30
2011,01,13,16,46,20.90
2011,01,13,16,47,14.50
2011,01,13,16,48,16.10
2011,01,13,16,49,14.50
2011,01,13,16,50,17.70
2011,01,13,16,51,16.10
2011,01,13,16,52,11.30
2011,01,13,16,53,17.70
2011,01,13,16,54,14.50
2011,01,13,16,55,17.70
2011,01,13,16,56,16.10
2011,01,13,16,57,19.30
2011,01,13,16,58,17.70
2011,01,13,16,59,17.70
2011,01,13,17,00,16.10
2011,01,13,17,01,19.30
2011,01,13,17,02,11.30
2011,01,13,17,03,9.60
2011,01,13,17,04,17.70
2011,01,13,17,05,17.70
2011,01,13,17,06,14.50
2011,01,13,17,07,19.30
2011,01,13,17,08,22.50
2011,01,13,17,09,22.50
2011,01,13,17,10,11.30
2011,01,13,17,11,17.70
2011,01,13,17,12,19.30
2011,01,13,17,13,20.90
2011,01,13,17,14,20.90
2011,01,13,17,15,14.50
2011,01,13,17,16,12.90
2011,01,13,17,17,14.50
2011,01,13,17,18,19.30
2011,01,13,17,19,19.30
2011,01,13,17,20,16.10
2011,01,13,17,21,14.50
2011,01,13,17,22,16.10
2011,01,13,17,23,16.10
2011,01,13,17,24,16.10
2011,01,13,17,25,16.10
2011,01,13,17,26,11.30
2011,01,13,17,27,19.30
2011,01,13,17,28,11.30
2011,01,13,17,29,9.60
2011,01,13,17,30,9.60
2011,01,13,17,31,8.10
2011,01,13,17,32,9.60
2011,01,13,17,33,8.10
2011,01,13,17,34,9.60
2011,01,13,17,35,14.50
2011,01,13,17,36,17.70
2011,01,13,17,37,9.60
2011,01,13,17,38,17.70
2011,01,13,17,39,19.30
2011,01,13,17,40,16.10
2011,01,13,17,41,19.30
2011,01,13,17,42,20.90
2011,01,13,17,43,20.90
2011,01,13,17,44,19.30
2011,01,13,17,45,9.60
2011,01,13,17,46,14.50
2011,01,13,17,47,6.40
2011,01,13,17,48,4.80
2011,01,13,17,49,9.60
2011,01,13,17,50,19.30
2011,01,13,17,51,12.90
2011,01,13,17,52,17.70
2011,01,13,17,53,14.50
2011,01,13,17,54,16.10
2011,01,13,17,55,14.50
2011,01,13,17,56,19.30
2011,01,13,17,57,27.40
2011,01,13,17,58,25.70
2011,01,13,17,59,19.30
2011,01,13,18,00,24.20
2011,01,13,18,01,25.70
2011,01,13,18,02,17.70
2011,01,13,18,03,17.70
2011,01,13,18,04,20.90
2011,01,13,18,05,25.70
2011,01,13,18,06,22.50
2011,01,13,18,07,19.30
2011,01,13,18,08,25.70
2011,01,13,18,09,27.40
2011,01,13,18,10,16.10
2011,01,13,18,11,22.50
2011,01,13,18,12,17.70
2011,01,13,18,13,20.90
2011,01,13,18,14,22.50
2011,01,13,18,15,19.30
2011,01,13,18,16,24.20
2011,01,13,18,17,27.40
2011,01,13,18,18,22.50
2011,01,13,18,19,16.10
2011,01,13,18,20,24.20
2011,01,13,18,21,19.30
2011,01,13,18,22,25.70
2011,01,13,18,23,32.20
2011,01,13,18,24,25.70
2011,01,13,18,25,16.10
2011,01,13,18,26,17.70
2011,01,13,18,27,17.70
2011,01,13,18,28,22.50
2011,01,13,18,29,11.30
2011,01,13,18,30,25.70
2011,01,13,18,31,20.90
2011,01,13,18,32,17.70
2011,01,13,18,33,17.70
2011,01,13,18,34,9.60
2011,01,13,18,35,19.30
2011,01,13,18,36,16.10
2011,01,13,18,37,20.90
2011,01,13,18,38,20.90
2011,01,13,18,39,16.10
2011,01,13,18,40,11.30
2011,01,13,18,41,14.50
2011,01,13,18,42,12.90
2011,01,13,18,43,11.30
2011,01,13,18,44,6.40
2011,01,13,18,45,4.80
2011,01,13,18,46,9.60
2011,01,13,18,47,16.10
2011,01,13,18,48,8.10
2011,01,13,18,49,9.60
2011,01,13,18,50,11.30
2011,01,13,18,51,6.40
2011,01,13,18,52,8.10
2011,01,13,18,53,4.80
2011,01,13,18,54,6.40
2011,01,13,18,55,6.40
2011,01,13,18,56,9.60
2011,01,13,18,57,16.10
2011,01,13,18,58,11.30
2011,01,13,18,59,16.10
2011,01,13,19,00,14.50
2011,01,13,19,01,1.60
2011,01,13,19,02,1.60
2011,01,13,19,03,6.40
2011,01,13,19,04,3.20
2011,01,13,19,05,8.10
2011,01,13,19,06,6.40
2011,01,13,19,07,1.60
2011,01,13,19,09,1.60
2011,01,13,19,10,1.60
2011,01,13,19,13,1.60
2011,01,13,19,14,1.60
2011,01,13,19,15,1.60
2011,01,13,19,16,1.60
2011,01,13,19,17,17.70
2011,01,13,19,18,8.10
2011,01,13,19,19,1.60
2011,01,13,19,20,4.80
2011,01,13,19,21,4.80
2011,01,13,19,22,1.60
2011,01,13,19,23,6.40
2011,01,13,19,24,3.20
2011,01,13,19,25,4.80
2011,01,13,19,26,6.40
2011,01,13,19,27,8.10
2011,01,13,19,28,9.60
2011,01,13,19,29,11.30
2011,01,13,19,30,19.30
2011,01,13,19,31,8.10
2011,01,13,19,32,16.10
2011,01,13,19,33,12.90
2011,01,13,19,34,6.40
2011,01,13,19,35,4.80
2011,01,13,19,36,11.30
2011,01,13,19,37,9.60
2011,01,13,19,38,1.60
2011,01,13,19,39,4.80
2011,01,13,19,40,8.10
2011,01,13,19,41,8.10
2011,01,13,19,42,8.10
2011,01,13,19,43,4.80
2011,01,13,19,44,17.70
2011,01,13,19,45,11.30
2011,01,13,19,46,16.10
2011,01,13,19,47,29.00
2011,01,13,19,48,29.00
2011,01,13,19,49,11.30
2011,01,13,19,50,11.30
2011,01,13,19,51,16.10
2011,01,13,19,52,11.30
2011,01,13,19,53,6.40
2011,01,13,19,54,9.60
2011,01,13,19,55,8.10
2011,01,13,19,56,11.30
2011,01,13,19,57,19.30
2011,01,13,19,58,19.30
2011,01,13,19,59,14.50
2011,01,13,20,00,6.40
2011,01,13,20,01,8.10
2011,01,13,20,02,14.50
2011,01,13,20,03,16.10
2011,01,13,20,04,16.10
2011,01,13,20,05,19.30
2011,01,13,20,06,11.30
2011,01,13,20,07,14.50
2011,01,13,20,08,11.30
2011,01,13,20,09,8.10
2011,01,13,20,10,6.40
2011,01,13,20,11,6.40
2011,01,13,20,12,17.70
2011,01,13,20,13,9.60
2011,01,13,20,14,16.10
2011,01,13,20,15,11.30
2011,01,13,20,16,11.30
2011,01,13,20,17,9.60
2011,01,13,20,18,6.40
2011,01,13,20,19,6.40
2011,01,13,20,20,8.10
2011,01,13,20,21,24.20
2011,01,13,20,22,8.10
2011,01,13,20,23,17.70
2011,01,13,20,24,14.50
2011,01,13,20,25,16.10
2011,01,13,20,26,9.60
2011,01,13,20,27,4.80
2011,01,13,20,28,8.10
2011,01,13,20,29,9.60
2011,01,13,20,30,14.50
2011,01,13,20,31,14.50
2011,01,13,20,32,19.30
2011,01,13,20,33,14.50
2011,01,13,20,34,11.30
2011,01,13,20,35,12.90
2011,01,13,20,36,16.10
2011,01,13,20,37,14.50
2011,01,13,20,38,11.30
2011,01,13,20,39,16.10
2011,01,13,20,40,19.30
2011,01,13,20,41,27.40
2011,01,13,20,42,19.30
2011,01,13,20,43,20.90
2011,01,13,20,44,14.50
2011,01,13,20,45,12.90
2011,01,13,20,46,24.20
2011,01,13,20,47,25.70
2011,01,13,20,48,35.40
2011,01,13,20,49,16.10
2011,01,13,20,50,27.40
2011,01,13,20,51,29.00
2011,01,13,20,52,17.70
2011,01,13,20,53,22.50
2011,01,13,20,54,33.80
2011,01,13,20,55,30.60
2011,01,13,20,56,22.50
2011,01,13,20,57,17.70
2011,01,13,20,58,11.30
2011,01,13,20,59,17.70
2011,01,13,21,00,14.50
2011,01,13,21,01,16.10
2011,01,13,21,02,19.30
2011,01,13,21,03,16.10
2011,01,13,21,04,29.00
2011,01,13,21,05,24.20
2011,01,13,21,06,14.50
2011,01,13,21,07,11.30
2011,01,13,21,08,24.20
2011,01,13,21,09,32.20
2011,01,13,21,10,37.00
2011,01,13,21,11,35.40
2011,01,13,21,12,19.30
2011,01,13,21,13,12.90
2011,01,13,21,14,11.30
2011,01,13,21,15,16.10
2011,01,13,21,16,19.30
2011,01,13,21,17,27.40
2011,01,13,21,18,8.10
2011,01,13,21,19,9.60
2011,01,13,21,20,27.40
2011,01,13,21,21,17.70
2011,01,13,21,22,27.40
2011,01,13,21,23,22.50
2011,01,13,21,24,17.70
2011,01,13,21,25,19.30
2011,01,13,21,26,27.40
2011,01,13,21,27,25.70
2011,01,13,21,28,16.10
2011,01,13,21,29,25.70
2011,01,13,21,30,17.70
2011,01,13,21,31,9.60
2011,01,13,21,32,24.20
2011,01,13,21,33,30.60
2011,01,13,21,34,24.20
2011,01,13,21,35,30.60
2011,01,13,21,36,24.20
2011,01,13,21,37,24.20
2011,01,13,21,38,30.60
2011,01,13,21,39,9.60
2011,01,13,21,40,17.70
2011,01,13,21,41,19.30
2011,01,13,21,42,24.20
2011,01,13,21,43,30.60
2011,01,13,21,44,22.50
2011,01,13,21,45,20.90
2011,01,13,21,46,12.90
2011,01,13,21,47,6.40
2011,01,13,21,48,12.90
2011,01,13,21,49,11.30
2011,01,13,21,50,16.10
2011,01,13,21,51,22.50
2011,01,13,21,52,20.90
2011,01,13,21,53,16.10
2011,01,13,21,54,20.90
2011,01,13,21,55,22.50
2011,01,13,21,56,22.50
2011,01,13,21,57,32.20
2011,01,13,21,58,27.40
2011,01,13,21,59,24.20
2011,01,13,22,00,30.60
2011,01,13,22,01,27.40
2011,01,13,22,02,29.00
2011,01,13,22,03,17.70
2011,01,13,22,04,12.90
2011,01,13,22,05,17.70
2011,01,13,22,06,20.90
2011,01,13,22,07,14.50
2011,01,13,22,08,14.50
2011,01,13,22,09,17.70
2011,01,13,22,10,19.30
2011,01,13,22,11,11.30
2011,01,13,22,12,12.90
2011,01,13,22,13,17.70
2011,01,13,22,14,22.50
2011,01,13,22,15,14.50
2011,01,13,22,16,37.00
2011,01,13,22,17,30.60
2011,01,13,22,18,20.90
2011,01,13,22,19,29.00
2011,01,13,22,20,14.50
2011,01,13,22,21,14.50
2011,01,13,22,22,9.60
2011,01,13,22,23,24.20
2011,01,13,22,24,27.40
2011,01,13,22,25,35.40
2011,01,13,22,26,29.00
2011,01,13,22,27,25.70
2011,01,13,22,28,16.10
2011,01,13,22,29,27.40
2011,01,13,22,30,22.50
2011,01,13,22,31,16.10
2011,01,13,22,32,16.10
2011,01,13,22,33,17.70
2011,01,13,22,34,20.90
2011,01,13,22,35,19.30
2011,01,13,22,36,27.40
2011,01,13,22,37,25.70
2011,01,13,22,38,20.90
2011,01,13,22,39,19.30
2011,01,13,22,40,16.10
2011,01,13,22,41,16.10
2011,01,13,22,42,17.70
2011,01,13,22,43,11.30
2011,01,13,22,44,14.50
2011,01,13,22,45,16.10
2011,01,13,22,46,11.30
2011,01,13,22,47,11.30
2011,01,13,22,48,20.90
2011,01,13,22,49,16.10
2011,01,13,22,50,12.90
2011,01,13,22,51,14.50
2011,01,13,22,52,19.30
2011,01,13,22,53,17.70
2011,01,13,22,54,12.90
2011,01,13,22,55,9.60
2011,01,13,22,56,22.50
2011,01,13,22,57,27.40
2011,01,13,22,58,16.10
2011,01,13,22,59,16.10
2011,01,13,23,00,12.90
2011,01,13,23,01,12.90
2011,01,13,23,02,8.10
2011,01,13,23,03,24.20
2011,01,13,23,04,20.90
2011,01,13,23,05,25.70
2011,01,13,23,06,19.30
2011,01,13,23,07,19.30
2011,01,13,23,08,24.20
2011,01,13,23,09,19.30
2011,01,13,23,10,16.10
2011,01,13,23,11,17.70
2011,01,13,23,12,19.30
2011,01,13,23,13,17.70
2011,01,13,23,14,14.50
2011,01,13,23,15,19.30
2011,01,13,23,16,17.70
2011,01,13,23,17,9.60
2011,01,13,23,18,6.40
2011,01,13,23,19,16.10
2011,01,13,23,20,11.30
2011,01,13,23,21,11.30
2011,01,13,23,22,16.10
2011,01,13,23,23,8.10
2011,01,13,23,24,16.10
2011,01,13,23,25,14.50
2011,01,13,23,26,12.90
2011,01,13,23,27,17.70
2011,01,13,23,28,19.30
2011,01,13,23,29,22.50
2011,01,13,23,30,22.50
2011,01,13,23,31,27.40
2011,01,13,23,32,16.10
2011,01,13,23,33,11.30
2011,01,13,23,34,20.90
2011,01,13,23,35,24.20
2011,01,13,23,36,17.70
2011,01,13,23,37,11.30
2011,01,13,23,38,20.90
2011,01,13,23,39,17.70
2011,01,13,23,40,25.70
2011,01,13,23,41,25.70
2011,01,13,23,42,11.30
2011,01,13,23,43,12.90
2011,01,13,23,44,17.70
2011,01,13,23,45,19.30
2011,01,13,23,46,14.50
2011,01,13,23,47,19.30
2011,01,13,23,48,14.50
2011,01,13,23,49,14.50
2011,01,13,23,50,14.50
2011,01,13,23,51,12.90
2011,01,13,23,52,16.10
2011,01,13,23,53,9.60
2011,01,13,23,54,6.40
2011,01,13,23,55,11.30
2011,01,13,23,56,22.50
2011,01,13,23,57,17.70
2011,01,13,23,58,20.90
2011,01,13,23,59,14.50
